User: anonymous   Login
Location: Carrières
(48.9495°N, 2.0407°E)
Time: 02:15:49
(UTC+00:00)
Language:

deb Kosmos-2227 - Orbit

View from above orbital plane
View from above orbital plane
View from above satellite
View from above satellite

Ground track
Ground track

The orbit data is extracted from the following two-line orbital elements,

1 22430U 92093DX  25322.25848669  .00000460  00000-0  34771-3 0  9991
2 22430  71.2357 289.6077 0114749   0.0591 104.6725 13.95982217671037
Epoch (UTC): 18 November 2025 06:12:13
Eccentricity: 0.0114749
inclination: 71.2357°
perigee height: 824 km
apogee height: 991 km
right ascension of ascending node: 289.6077°
argument of perigee: 0.0591°
revolutions per day: 13.95982217
mean anomaly at epoch: 104.6725°
orbit number at epoch: 67103

The dashed part of the orbit path shows where the satellite is in the earth's shadow,  

DLR